User: anonymous   Login
Location: Caltech
(34.1382°N, 118.1253°W)
Time: 15:40:54
(UTC-08:00)
Language:

TITAN 4B R/B - Orbit

View from above orbital plane
View from above orbital plane
View from above satellite
View from above satellite

Ground track
Ground track

The orbit data is extracted from the following two-line orbital elements,

1 28647U 05016B   14351.25255630 0.00006200  00000-0  38218-3 0    07
2 28647  56.9986 115.6192 0141488 124.0330 235.9669 15.01469627    07
Epoch (UTC): 17 December 2014 06:03:40
Eccentricity: 0.0141488
inclination: 56.9986°
perigee height: 464 km
apogee height: 660 km
right ascension of ascending node: 115.6192°
argument of perigee: 124.0330°
revolutions per day: 15.01469627
mean anomaly at epoch: 235.9669°
orbit number at epoch: 0

The dashed part of the orbit path shows where the satellite is in the earth's shadow,  

DLR